EW1388 Weather Reports


time (UTC)temp
C
wind
direction
speed
KPH
gust
KPH
rain 1hr
cm
rain 24hr
cm
rain mn
cm
humidity
%
barometer
mb
20260505051534 12 326 0.0 6.4 0.03 0.03 0.00 62 1002.4
20260505041527 13 310 3.2 6.4 0.00 0.00 0.00 68 1000.2
20260505040027 13 328 3.2 9.7 0.00 0.00 0.00 70 1000.2
20260505034528 13 330 3.2 12.9 0.00 0.00 0.00 71 1000.3
20260505033027 14 332 3.2 9.7 0.00 0.00 0.00 75 1000.3
20260505031526 15 350 4.8 14.5 0.00 0.00 0.00 78 1000.1
20260505030041 15 297 4.8 14.5 0.00 0.00 0.00 80 1000.2
20260505024524 15 318 3.2 6.4 0.00 0.00 0.00 87 999.6
20260505023025 15 326 1.6 6.4 0.00 0.00 0.00 86 999.3
20260505021523 15 292 3.2 6.4 0.00 0.00 0.00 82 999.4
20260505020021 16 289 3.2 11.3 0.00 0.00 0.00 82 998.9
20260505014523 16 259 4.8 20.9 0.00 0.00 0.00 78 998.4
20260505013122 17 294 12.9 20.9 0.00 0.00 0.00 72 998.7
20260505011519 17 314 1.6 8.0 0.00 0.00 0.00 69 998.3
20260505010018 19 311 3.2 16.1 0.00 0.00 0.00 59 998.3
20260505004530 21 194 4.8 25.7 0.00 0.00 0.00 48 997.4
20260505003017 23 240 8.0 19.3 0.00 0.00 0.00 50 997.0
20260505001516 23 213 8.0 17.7 0.00 0.00 0.00 50 996.6
20260505000017 23 232 11.3 19.3 0.00 0.00 0.00 49 996.2
20260504234518 23 209 11.3 17.7 0.00 0.00 0.00 49 996.5
20260504233020 25 229 14.5 29.0 0.00 0.00 0.00 46 996.7
20260504231512 26 190 20.9 32.2 0.00 0.00 0.00 45 996.6
20260504230012 26 211 19.3 37.0 0.00 0.00 0.00 44 996.3
20260504224509 26 185 22.5 35.4 0.00 0.00 0.00 44 996.4
20260504223008 26 182 16.1 29.0 0.00 0.00 0.00 44 996.6
20260504221506 26 194 14.5 29.0 0.00 0.00 0.00 44 996.6
20260504220006 26 213 20.9 33.8 0.00 0.00 0.00 42 996.7
20260504214503 26 216 16.1 37.0 0.00 0.00 0.00 42 997.0
20260504213004 26 197 17.7 30.6 0.00 0.00 0.00 43 997.1
20260504211558 26 216 16.1 32.2 0.00 0.00 0.00 40 997.2
20260504210057 25 198 19.3 29.0 0.00 0.00 0.00 41 997.5
20260504204555 26 219 17.7 30.6 0.00 0.00 0.00 44 997.7
20260504203052 25 205 17.7 25.7 0.00 0.00 0.00 43 997.9
20260504201553 26 219 17.7 38.6 0.00 0.00 0.00 42 998.0
20260504200048 25 214 14.5 27.4 0.00 0.00 0.00 43 998.1
20260504194553 25 220 19.3 33.8 0.00 0.00 0.00 43 998.2
20260504193048 25 225 16.1 27.4 0.00 0.00 0.00 46 998.2
20260504191608 25 201 14.5 27.4 0.00 0.00 0.00 45 998.3
20260504190041 24 205 17.7 33.8 0.00 0.00 0.00 46 998.4
20260504184550 24 221 17.7 30.6 0.00 0.00 0.00 45 998.5
20260504183038 25 219 16.1 37.0 0.00 0.00 0.00 46 998.5
20260504181535 24 230 16.1 32.2 0.00 0.00 0.00 45 998.6
20260504180036 23 211 16.1 33.8 0.00 0.00 0.00 47 998.6
20260504174533 23 229 20.9 35.4 0.00 0.00 0.00 48 998.6
20260504173030 23 204 16.1 38.6 0.00 0.00 0.00 49 998.7
20260504171528 23 216 16.1 29.0 0.00 0.00 0.00 50 999.1
20260504140105 18 185 12.9 19.3 0.00 0.00 0.00 63 1000.8
20260504081505 12 207 6.4 12.9 0.00 0.00 0.00 68 1003.3